[[{"header":{"parameterUnit":"m.s-1","parameterCategory":1,"la1":30.2991,"la2":30.254,"lo1":-89.0895,"lo2":-89.0444,"dy":0.0017,"dx":0.0017,"nx":28,"ny":28,"refTime":"2024-02-23T03:00:00:Z","depth":0,"parameterNumber":2,"parameterNumberName":"U-component_of_WINDS"},"data":[0,0,0,0,0,0,0,0,0,0,0,0,0,0,0,0,0,0,0,0,0,0,0,0,0,0,0,0,0,0,0,0,0,0,0,0,0,0,0,0,0,0,0,0,0,0,0,0,0,0,0,0,0,0,0,0,0,0,1.2527,1.2527,0,1.2553,1.2553,1.2553,1.2535,1.2534,1.2533,1.2533,1.2559,1.256,1.2562,0,0,0,0,0,0,0,0,0,0,0,0,0,1.2464,1.2465,1.2527,1.2528,1.2528,1.2553,1.2553,1.2553,1.2535,1.2534,1.2533,1.2532,1.2559,1.256,1.2562,0,0,0,0,0,0,0,0,0,0,0,0,0,1.2491,1.2466,1.2527,1.2522,1.2522,1.2552,1.2553,1.2553,1.2535,1.2534,1.2533,1.2532,1.2558,1.256,1.2562,1.26,0,0,1.2569,1.257,0,0,0,0,0,0,0,0,1.2489,1.2493,1.2522,1.2522,1.2522,1.2539,1.254,1.2569,1.2536,1.253,1.2533,1.2531,1.2553,1.2556,1.2563,1.2601,1.2602,1.2569,1.257,1.2571,1.2572,0,0,0,0,0,0,0,1.2487,1.2492,1.2537,1.2523,1.2523,1.2518,1.2521,1.2546,1.2548,1.2531,1.2529,1.2533,1.2553,1.2561,1.2564,1.2603,1.2569,1.2571,1.2572,1.2573,1.2674,1.2675,0,0,0,0,0,0,1.2486,1.249,1.2536,1.2538,1.2502,1.2521,1.2523,1.2535,1.2548,1.2549,1.2534,1.2532,1.2558,1.2561,1.2565,1.2611,1.2571,1.2573,1.2575,1.2673,1.2674,1.2676,0,0,0,0,0,0,1.2485,1.249,1.2535,1.2514,1.2519,1.2523,1.2536,1.2536,1.2544,1.255,1.2551,1.2541,1.2557,1.2562,1.2592,1.2611,1.2574,1.2576,1.2671,1.2673,1.2675,1.2702,0,0,0,0,0,0,1.2483,1.249,1.2504,1.2514,1.2521,1.2562,1.2537,1.2538,1.2548,1.2546,1.2558,1.2558,1.2557,1.2588,1.2594,1.2614,1.2578,1.2669,1.2672,1.2674,1.27,1.2705,1.271,0,0,0,0,0,1.2481,1.251,1.2505,1.251,1.2538,1.2563,1.2566,1.2564,1.255,1.2564,1.2568,1.2558,1.2608,1.2592,1.2597,1.2618,1.2668,1.2671,1.2674,1.2698,1.2704,1.271,0,0,0,0,0,0,1.2502,1.2512,1.2505,1.2539,1.255,1.256,1.2578,1.257,1.2586,1.2583,1.2579,1.2582,1.2614,1.2619,1.26,1.2656,1.2636,1.264,1.2652,1.2658,1.2663,1.2661,1.258,0,0,0,0,0,1.2511,1.253,1.2537,1.2566,1.2572,1.2574,1.2585,1.2582,1.2593,1.2598,1.2604,1.2615,1.2634,1.2646,1.2663,1.27,1.2703,1.2718,1.2723,1.2727,1.2731,1.2752,1.2759,1.2686,1.2686,1.2686,0,0,1.2529,1.2536,1.2548,1.2571,1.2579,1.2599,1.2578,1.26,1.2615,1.2601,1.263,1.2635,1.2648,1.2682,1.2697,1.2687,1.2752,1.2731,1.2734,1.2736,1.2756,1.2763,1.2769,1.2688,1.2688,1.2687,0,0,1.2572,1.2579,1.2605,1.2614,1.2627,1.2628,1.2634,1.2645,1.2648,1.2677,1.2667,1.2685,1.2716,1.2726,1.2736,1.2784,1.2776,1.279,1.2816,1.2837,1.2843,1.2848,1.2867,1.2873,1.2794,1.2794,1.2794,0,1.2593,1.2623,1.2619,1.2642,1.2653,1.2641,1.2668,1.2676,1.2694,1.2702,1.2691,1.2731,1.2738,1.2775,1.2787,1.2795,1.2803,1.2789,1.2842,1.2847,1.2852,1.287,1.2877,1.2795,1.2795,1.2795,1.2795,0,1.2648,1.2669,1.2689,1.2707,1.2719,1.2744,1.2745,1.2758,1.2754,1.2757,1.2787,1.2796,1.2816,1.2824,1.282,1.2861,1.2854,1.2843,1.2822,1.2861,1.2878,1.2884,1.2798,1.2797,1.2797,1.2796,0,0,1.2706,1.2722,1.273,1.2738,1.2752,1.2768,1.2793,1.2812,1.2824,1.2837,1.2858,1.2886,1.2875,1.2886,1.2883,1.2901,1.2941,1.2887,1.2888,1.2898,1.2988,1.2997,1.3005,1.2935,1.2936,1.2937,1.2987,0,1.2751,1.2794,1.2792,1.2832,1.2852,1.2842,1.2863,1.2874,1.2878,1.2896,1.2899,1.2919,1.2903,1.291,1.2927,1.2932,1.2959,1.2928,1.2956,1.2957,1.2954,1.3013,1.3023,1.307,1.2993,1.2994,1.2995,0,1.281,1.2825,1.2868,1.2879,1.2888,1.2907,1.2925,1.2942,1.2955,1.2956,1.2968,1.2963,1.2989,1.2967,1.3003,1.2983,1.2994,1.2998,1.3,1.3003,1.2979,1.302,1.3085,1.3092,1.3005,1.3004,1.3004,0,1.2849,1.288,1.291,1.2918,1.2932,1.2946,1.2953,1.2964,1.2976,1.2992,1.3,1.3018,1.3029,1.3044,1.3044,1.3028,1.3081,1.3059,1.3083,1.3084,1.3096,1.3095,1.3165,1.3101,1.3101,1.3101,1.3101,0,1.29,1.2927,1.2928,1.2947,1.2977,1.2974,1.3004,1.3009,1.302,1.304,1.3031,1.305,1.3048,1.3068,1.3068,1.3099,1.3103,1.3105,1.3105,1.3107,1.3107,1.3115,1.3112,1.3103,1.3102,1.3102,1.3102,0,1.295,1.2951,1.2984,1.2995,1.2998,1.302,1.3029,1.3047,1.305,1.3075,1.3081,1.3086,1.3108,1.3109,1.3135,1.3135,1.3173,1.3169,1.3169,1.3169,1.3193,1.3192,1.3271,1.3282,1.321,1.3211,1.3212,0,1.2983,1.3004,1.3017,1.303,1.3037,1.3058,1.307,1.3068,1.3082,1.3099,1.3115,1.3136,1.3154,1.319,1.3196,1.3216,1.3213,1.3239,1.3216,1.3217,1.3215,1.3214,1.3217,1.3244,1.3245,1.3246,1.3246,0,1.3043,1.3043,1.3061,1.308,1.3095,1.3109,1.3123,1.3134,1.3134,1.315,1.3173,1.3186,1.3213,1.3235,1.3254,1.3262,1.3255,1.3254,1.3261,1.3263,1.3263,1.3265,1.3183,1.3252,1.3252,1.3251,1.3251,1.3251,1.3086,1.3104,1.3117,1.3138,1.3148,1.3161,1.3179,1.3184,1.3203,1.3225,1.3222,1.3248,1.3261,1.3287,1.3296,1.3317,1.3308,1.3317,1.332,1.3323,1.3326,1.3259,1.332,1.332,1.332,1.332,1.3319,0,1.3146,1.3154,1.3173,1.3193,1.3209,1.3201,1.3216,1.323,1.3253,1.3266,1.3283,1.331,1.3332,1.334,1.3361,1.3376,1.3373,1.3382,1.3381,1.3383,1.3332,1.3325,1.3383,1.3383,1.3383,1.3383,1.3383,1.3383,1.3179,1.321,1.3212,1.3248,1.3255,1.3281,1.329,1.3303,1.3313,1.3344,1.3361,1.3366,1.3377,1.3399,1.3419,1.3421,1.343,1.344,1.3441,1.3393,1.3387,1.3381,1.3374,1.3441,1.3442,1.349,1.349,1.3491]},{"header":{"parameterUnit":"m.s-1","parameterCategory":1,"la1":30.2991,"la2":30.254,"lo1":-89.0895,"lo2":-89.0444,"dy":0.0017,"dx":0.0017,"nx":28,"ny":28,"refTime":"2024-02-23T03:00:00:Z","depth":0,"parameterNumber":3,"parameterNumberName":"V-component_of_WINDS"},"data":[0,0,0,0,0,0,0,0,0,0,0,0,0,0,0,0,0,0,0,0,0,0,0,0,0,0,0,0,0,0,0,0,0,0,0,0,0,0,0,0,0,0,0,0,0,0,0,0,0,0,0,0,0,0,0,0,0,0,-2.0335,-2.0336,0,-2.0392,-2.0392,-2.0393,-2.0411,-2.0411,-2.0411,-2.0411,-2.0466,-2.0467,-2.0469,0,0,0,0,0,0,0,0,0,0,0,0,0,-2.024,-2.0241,-2.0335,-2.0336,-2.0336,-2.0392,-2.0392,-2.0393,-2.0411,-2.0411,-2.0411,-2.041,-2.0465,-2.0467,-2.0469,0,0,0,0,0,0,0,0,0,0,0,0,0,-2.0287,-2.0242,-2.0335,-2.0352,-2.0354,-2.0392,-2.0392,-2.0393,-2.0411,-2.0411,-2.0411,-2.041,-2.0464,-2.0467,-2.0469,-2.0492,0,0,-2.0477,-2.0478,0,0,0,0,0,0,0,0,-2.0284,-2.0291,-2.0349,-2.0351,-2.0353,-2.0394,-2.0379,-2.0426,-2.0412,-2.039,-2.0411,-2.041,-2.0442,-2.0446,-2.0458,-2.0495,-2.0497,-2.0477,-2.0479,-2.048,-2.0481,0,0,0,0,0,0,0,-2.0281,-2.0288,-2.0357,-2.035,-2.0352,-2.0356,-2.0363,-2.0388,-2.0417,-2.0391,-2.0393,-2.04,-2.0443,-2.0455,-2.0459,-2.0498,-2.0477,-2.0479,-2.0481,-2.0482,-2.0558,-2.0559,0,0,0,0,0,0,-2.0275,-2.0285,-2.0355,-2.0359,-2.0317,-2.0358,-2.0365,-2.0381,-2.0417,-2.0422,-2.04,-2.04,-2.0451,-2.0456,-2.0461,-2.0491,-2.048,-2.0482,-2.0484,-2.0558,-2.0558,-2.0559,0,0,0,0,0,0,-2.0273,-2.0281,-2.0353,-2.0323,-2.0332,-2.036,-2.0378,-2.0383,-2.0395,-2.0423,-2.0428,-2.0407,-2.0451,-2.0457,-2.0485,-2.0493,-2.0483,-2.0486,-2.0557,-2.0558,-2.0558,-2.055,0,0,0,0,0,0,-2.027,-2.0281,-2.029,-2.0323,-2.0334,-2.0377,-2.0379,-2.0384,-2.04,-2.0401,-2.0431,-2.0436,-2.0451,-2.0481,-2.0487,-2.0496,-2.0488,-2.0556,-2.0557,-2.0558,-2.055,-2.0551,-2.0551,0,0,0,0,0,-2.0267,-2.0284,-2.029,-2.0299,-2.0346,-2.0377,-2.0383,-2.0401,-2.04,-2.041,-2.0428,-2.0435,-2.0491,-2.0484,-2.0491,-2.0501,-2.0556,-2.0557,-2.0558,-2.055,-2.055,-2.0551,0,0,0,0,0,0,-2.025,-2.0289,-2.0296,-2.0325,-2.0348,-2.038,-2.0393,-2.0401,-2.0424,-2.0424,-2.0445,-2.0451,-2.0477,-2.0492,-2.0483,-2.0525,-2.0524,-2.0526,-2.0515,-2.0516,-2.0516,-2.0512,-2.049,0,0,0,0,0,-2.025,-2.0273,-2.0305,-2.0328,-2.0339,-2.0364,-2.0378,-2.039,-2.0414,-2.0423,-2.0444,-2.0466,-2.0489,-2.0503,-2.0526,-2.0552,-2.0559,-2.0563,-2.0563,-2.0564,-2.0566,-2.0581,-2.0583,-2.0562,-2.0562,-2.0562,0,0,-2.025,-2.0274,-2.0287,-2.0325,-2.0344,-2.0367,-2.0372,-2.0395,-2.0412,-2.0427,-2.0454,-2.047,-2.0496,-2.0523,-2.0536,-2.0536,-2.0573,-2.0565,-2.0565,-2.0567,-2.0583,-2.0584,-2.0586,-2.0563,-2.0563,-2.0563,0,0,-2.0261,-2.0281,-2.0303,-2.0322,-2.0352,-2.0368,-2.0374,-2.0405,-2.0417,-2.0445,-2.0457,-2.0477,-2.0515,-2.0534,-2.0548,-2.0568,-2.0575,-2.0574,-2.0577,-2.0592,-2.0594,-2.0595,-2.0602,-2.0605,-2.0576,-2.0576,-2.0576,0,-2.0256,-2.0291,-2.0312,-2.0335,-2.0352,-2.0368,-2.0389,-2.0407,-2.0442,-2.0452,-2.0452,-2.0502,-2.0521,-2.0553,-2.0558,-2.0569,-2.0575,-2.057,-2.0592,-2.0594,-2.0596,-2.0602,-2.0605,-2.0576,-2.0576,-2.0576,-2.0576,0,-2.0285,-2.0309,-2.0322,-2.0357,-2.0375,-2.0397,-2.0421,-2.0436,-2.0447,-2.0464,-2.0492,-2.0516,-2.0544,-2.0552,-2.0562,-2.0586,-2.0585,-2.0588,-2.0587,-2.0597,-2.0604,-2.0607,-2.0575,-2.0576,-2.0576,-2.0576,0,0,-2.0285,-2.0333,-2.0337,-2.0353,-2.0388,-2.0407,-2.0429,-2.0458,-2.0471,-2.0495,-2.0514,-2.0547,-2.0551,-2.0567,-2.058,-2.0593,-2.0607,-2.0595,-2.0596,-2.0596,-2.0635,-2.0632,-2.0635,-2.0613,-2.0613,-2.0614,-2.0633,0,-2.03,-2.0343,-2.0363,-2.0396,-2.0419,-2.0436,-2.0455,-2.0478,-2.0495,-2.0516,-2.0534,-2.0557,-2.056,-2.057,-2.0584,-2.0603,-2.0615,-2.0602,-2.063,-2.0631,-2.0623,-2.0638,-2.0635,-2.0651,-2.0635,-2.0636,-2.0636,0,-2.0323,-2.0349,-2.0385,-2.0418,-2.0428,-2.0446,-2.0474,-2.0494,-2.052,-2.0531,-2.055,-2.0563,-2.0587,-2.0585,-2.0619,-2.0609,-2.0622,-2.0633,-2.0634,-2.0637,-2.0634,-2.0641,-2.0657,-2.0659,-2.0641,-2.064,-2.064,0,-2.032,-2.0363,-2.0391,-2.0404,-2.0443,-2.0455,-2.0472,-2.0498,-2.0514,-2.0539,-2.0549,-2.0576,-2.059,-2.061,-2.0629,-2.0626,-2.0661,-2.066,-2.067,-2.067,-2.0676,-2.0675,-2.0694,-2.0685,-2.0685,-2.0685,-2.0685,0,-2.0335,-2.0356,-2.039,-2.0407,-2.0431,-2.0454,-2.0477,-2.0495,-2.0518,-2.0538,-2.0554,-2.0572,-2.0597,-2.0618,-2.0633,-2.0659,-2.0665,-2.0674,-2.0678,-2.0673,-2.0672,-2.0681,-2.068,-2.0686,-2.0686,-2.0686,-2.0685,0,-2.0335,-2.0359,-2.039,-2.0425,-2.0434,-2.045,-2.048,-2.0496,-2.0514,-2.054,-2.0547,-2.0574,-2.06,-2.0622,-2.0655,-2.0666,-2.0692,-2.0697,-2.0684,-2.0685,-2.0694,-2.0693,-2.0719,-2.0724,-2.0712,-2.0712,-2.0712,0,-2.0343,-2.036,-2.0397,-2.0412,-2.0429,-2.0453,-2.047,-2.0493,-2.051,-2.0542,-2.0555,-2.0583,-2.0606,-2.0646,-2.0669,-2.0695,-2.07,-2.0707,-2.0704,-2.0698,-2.07,-2.0698,-2.07,-2.0707,-2.0707,-2.0707,-2.0707,0,-2.0353,-2.0365,-2.0389,-2.0418,-2.0439,-2.0462,-2.0486,-2.0497,-2.0525,-2.0543,-2.0571,-2.0589,-2.0624,-2.0651,-2.068,-2.0696,-2.0706,-2.0709,-2.0712,-2.0707,-2.0698,-2.0703,-2.0684,-2.0708,-2.0707,-2.0707,-2.0707,-2.0707,-2.0357,-2.0374,-2.0403,-2.043,-2.0451,-2.0473,-2.0491,-2.0511,-2.0535,-2.0566,-2.0578,-2.0606,-2.0633,-2.0673,-2.069,-2.0711,-2.0713,-2.0718,-2.0719,-2.072,-2.0719,-2.0695,-2.0717,-2.0717,-2.0717,-2.0717,-2.0717,0,-2.0369,-2.0389,-2.0414,-2.0447,-2.0469,-2.0478,-2.0505,-2.0522,-2.0547,-2.0571,-2.0595,-2.0626,-2.0653,-2.0678,-2.0706,-2.0719,-2.0724,-2.0725,-2.0724,-2.0728,-2.0717,-2.0711,-2.072,-2.072,-2.072,-2.072,-2.072,-2.072,-2.0377,-2.0406,-2.042,-2.0459,-2.0478,-2.0507,-2.0522,-2.0542,-2.0562,-2.0598,-2.062,-2.0637,-2.0662,-2.0692,-2.0716,-2.0723,-2.0732,-2.0732,-2.074,-2.0729,-2.0728,-2.0728,-2.0722,-2.0734,-2.0734,-2.0749,-2.0749,-2.0749]}]]